User: anonymous   Login
Location: Bishop�s Knoyle
(51.0728°N, 2.1714°W)
Time: 18:31:35
(UTC+00:00)
Language:

SPOT 5 - Orbit

View from above orbital plane
View from above orbital plane
View from above satellite
View from above satellite

Ground track
Ground track

The orbit data is extracted from the following two-line orbital elements,

1 27421U 02021A   21332.96133383  .00000041  00000-0  20253-4 0  9999
2 27421  98.2139  40.2975 0135097  17.1643 343.4060 14.52143098 21600
Epoch (UTC): 28 November 2021 23:04:19
Eccentricity: 0.0135097
inclination: 98.2139°
perigee height: 623 km
apogee height: 814 km
right ascension of ascending node: 40.2975°
argument of perigee: 17.1643°
revolutions per day: 14.52143098
mean anomaly at epoch: 343.4060°
orbit number at epoch: 2160

The dashed part of the orbit path shows where the satellite is in the earth's shadow,  

DLR